K5BV Weather Reports


Display with metric or nautical units.
time (UTC)temp
F
wind
direction
speed
MPH
gust
MPH
rain 1hr
in
rain 24hr
in
rain mn
in
humidity
%
barometer
mb
20260506220234 83 0 0.0 0.0 0.00 0.00 0.00 87 1008.5
20260506215235 84 0 0.0 0.0 0.00 0.00 0.00 85 1008.4
20260506214235 85 0 0.0 0.0 0.00 0.00 0.00 83 1008.4
20260506213234 85 0 0.0 0.0 0.00 0.00 0.00 83 1008.3
20260506212234 85 0 0.0 0.0 0.00 0.00 0.00 83 1008.3
20260506211234 84 0 0.0 0.0 0.00 0.00 0.00 84 1008.4
20260506210234 84 0 0.0 0.0 0.00 0.00 0.00 85 1008.5
20260506205235 84 0 0.0 0.0 0.00 0.00 0.00 85 1008.5
20260506204235 84 0 0.0 0.0 0.00 0.00 0.00 84 1008.8
20260506203234 84 0 0.0 0.0 0.00 0.00 0.00 85 1008.8
20260506202235 84 0 0.0 0.0 0.00 0.00 0.00 86 1009.0
20260506201235 84 0 0.0 0.0 0.00 0.00 0.00 85 1009.1
20260506200234 84 0 0.0 0.0 0.00 0.00 0.00 85 1009.2
20260506195234 84 0 0.0 0.0 0.00 0.00 0.00 86 1009.2
20260506194235 83 0 0.0 0.0 0.00 0.00 0.00 87 1009.3
20260506193234 83 0 0.0 0.0 0.00 0.00 0.00 88 1009.3
20260506192234 82 0 0.0 0.0 0.00 0.00 0.00 90 1009.6
20260506191236 82 0 0.0 0.0 0.00 0.00 0.00 91 1009.7
20260506190234 81 0 0.0 0.0 0.00 0.00 0.00 91 1009.8
20260506185234 81 0 0.0 0.0 0.00 0.00 0.00 91 1009.9
20260506184234 81 0 0.0 0.0 0.00 0.00 0.00 91 1009.9
20260506183235 81 0 0.0 0.0 0.00 0.00 0.00 90 1010.0
20260506182234 82 0 0.0 0.0 0.00 0.00 0.00 89 1010.2
20260506181234 82 0 0.0 0.0 0.00 0.00 0.00 89 1010.1
20260506180236 82 0 0.0 0.0 0.00 0.00 0.00 90 1010.0
20260506175234 82 0 0.0 0.0 0.00 0.00 0.00 92 1010.1
20260506174235 81 0 0.0 0.0 0.00 0.00 0.00 95 1010.2
20260506173234 80 0 0.0 0.0 0.00 0.00 0.00 96 1010.1
20260506172235 79 0 0.0 0.0 0.00 0.00 0.00 96 1010.3
20260506171235 78 0 0.0 0.0 0.00 0.00 0.00 97 1010.3
20260506170246 78 0 0.0 0.0 0.00 0.00 0.00 97 1010.2
20260506165234 78 0 0.0 0.0 0.00 0.00 0.00 97 1010.1
20260506164235 78 0 0.0 0.0 0.00 0.00 0.00 97 1010.1
20260506163234 78 0 0.0 0.0 0.00 0.00 0.00 97 1010.1
20260506162235 78 0 0.0 0.0 0.00 0.00 0.00 97 1009.9
20260506161234 78 0 0.0 0.0 0.00 0.00 0.00 98 1010.0
20260506160234 77 0 0.0 0.0 0.00 0.00 0.00 98 1009.8
20260506155234 77 0 0.0 0.0 0.00 0.00 0.00 98 1009.6
20260506154234 78 0 0.0 0.0 0.00 0.00 0.00 98 1009.4
20260506153234 78 0 0.0 0.0 0.00 0.00 0.00 97 1009.3
20260506152234 78 0 0.0 0.0 0.00 0.00 0.00 97 1009.3
20260506151234 78 0 0.0 0.0 0.00 0.00 0.00 97 1009.2
20260506150236 78 0 0.0 0.0 0.00 0.00 0.00 97 1009.3
20260506145234 78 0 0.0 0.0 0.00 0.00 0.00 97 1009.2
20260506144234 78 0 0.0 0.0 0.00 0.00 0.00 97 1009.2
20260506143234 78 0 0.0 0.0 0.00 0.00 0.00 97 1009.3
20260506142236 78 0 0.0 0.0 0.00 0.00 0.00 97 1009.2
20260506141237 78 0 0.0 0.0 0.00 0.00 0.00 97 1009.4
20260506140243 78 0 0.0 0.0 0.00 0.00 0.00 97 1009.1
20260506135236 78 0 0.0 0.0 0.00 0.00 0.00 97 1009.1
20260506134234 78 0 0.0 0.0 0.00 0.00 0.00 97 1009.0
20260506133234 78 0 0.0 0.0 0.00 0.00 0.00 97 1009.1
20260506131236 78 0 0.0 0.0 0.00 0.00 0.00 97 1009.1
20260506130237 77 0 0.0 0.0 0.00 0.00 0.00 97 1009.0
20260506125235 77 0 0.0 0.0 0.00 0.00 0.00 97 1009.0
20260506124235 77 0 0.0 0.0 0.00 0.00 0.00 97 1008.9
20260506123235 77 0 0.0 0.0 0.00 0.00 0.00 97 1008.8
20260506122235 77 0 0.0 0.0 0.00 0.00 0.00 97 1008.7
20260506121235 77 0 0.0 0.0 0.00 0.00 0.00 97 1008.7
20260506120235 78 0 0.0 0.0 0.00 0.00 0.00 97 1008.7
20260506115236 77 0 0.0 0.0 0.00 0.00 0.00 97 1008.6
20260506114235 77 0 0.0 0.0 0.00 0.00 0.00 97 1008.6
20260506113236 77 0 0.0 0.0 0.00 0.00 0.00 97 1008.5
20260506112235 77 0 0.0 0.0 0.00 0.00 0.00 97 1008.5
20260506111235 77 0 0.0 0.0 0.00 0.00 0.00 97 1008.5
20260506110235 77 0 0.0 0.0 0.00 0.00 0.00 97 1008.5
20260506105235 77 0 0.0 0.0 0.00 0.00 0.00 97 1008.6
20260506104235 77 0 0.0 0.0 0.00 0.00 0.00 97 1008.5
20260506103235 77 0 0.0 0.0 0.00 0.00 0.00 96 1008.6
20260506102235 77 0 0.0 0.0 0.00 0.00 0.00 96 1008.5
20260506101235 77 0 0.0 0.0 0.00 0.00 0.00 96 1008.5
20260506100235 77 0 0.0 0.0 0.00 0.00 0.00 96 1008.4
20260506095235 77 0 0.0 0.0 0.00 0.00 0.00 96 1008.3
20260506094235 77 0 0.0 0.0 0.00 0.00 0.00 96 1008.2
20260506093235 77 0 0.0 0.0 0.00 0.00 0.00 96 1008.1
20260506092235 77 0 0.0 0.0 0.00 0.00 0.00 96 1008.2
20260506091235 77 0 0.0 0.0 0.00 0.00 0.00 96 1008.1
20260506090235 77 0 0.0 0.0 0.00 0.00 0.00 96 1008.0
20260506085235 77 0 0.0 0.0 0.00 0.00 0.00 96 1008.1
20260506084235 77 0 0.0 0.0 0.00 0.00 0.00 96 1008.1
20260506083235 77 0 0.0 0.0 0.00 0.00 0.00 96 1008.1
20260506082235 77 0 0.0 0.0 0.00 0.00 0.00 97 1008.1
20260506081235 77 0 0.0 0.0 0.00 0.00 0.00 97 1008.0
20260506080235 77 0 0.0 0.0 0.00 0.00 0.00 97 1007.9
20260506073235 77 0 0.0 0.0 0.00 0.00 0.00 96 1008.1
20260506072235 77 0 0.0 0.0 0.00 0.00 0.00 96 1008.4
20260506071235 77 0 0.0 0.0 0.00 0.00 0.00 96 1008.6
20260506070236 77 0 0.0 0.0 0.00 0.00 0.00 96 1008.9
20260506062236 78 0 0.0 0.0 0.00 0.00 0.00 96 1009.2
20260506061235 78 0 0.0 0.0 0.00 0.00 0.00 96 1009.3
20260506060235 78 0 0.0 0.0 0.00 0.00 0.00 96 1009.2
20260506051235 78 0 0.0 0.0 0.00 0.00 0.00 97 1009.4
20260506050239 78 0 0.0 0.0 0.00 0.00 0.00 97 1009.3
20260506044235 77 0 0.0 0.0 0.00 0.00 0.00 97 1009.2
20260506043235 78 0 0.0 0.0 0.00 0.00 0.00 97 1009.3
20260506042235 77 0 0.0 0.0 0.00 0.00 0.00 97 1009.1
20260506041235 78 0 0.0 0.0 0.00 0.00 0.00 96 1009.2
20260506040234 78 0 0.0 0.0 0.00 0.00 0.00 96 1009.3
20260506035234 78 0 0.0 0.0 0.00 0.00 0.00 96 1009.1
20260506034235 78 0 0.0 0.0 0.00 0.00 0.00 96 1008.9
20260506033234 78 0 0.0 0.0 0.00 0.00 0.00 96 1008.7
20260506032235 78 0 0.0 0.0 0.00 0.00 0.00 96 1008.7
20260506031236 78 0 0.0 0.0 0.00 0.00 0.00 96 1008.6
20260506030236 77 0 0.0 0.0 0.00 0.00 0.00 96 1008.4
20260506025235 77 0 0.0 0.0 0.00 0.00 0.00 96 1008.4
20260506024235 78 0 0.0 0.0 0.00 0.00 0.00 96 1008.3
20260506023235 78 0 0.0 0.0 0.00 0.00 0.00 96 1008.2
20260506022234 78 0 0.0 0.0 0.00 0.00 0.00 96 1008.1
20260506021235 77 0 0.0 0.0 0.00 0.00 0.00 96 1007.9
20260506020235 77 0 0.0 0.0 0.00 0.00 0.00 96 1007.9
20260506015235 78 0 0.0 0.0 0.00 0.00 0.00 96 1007.7
20260506014235 78 0 0.0 0.0 0.00 0.00 0.00 96 1007.6
20260506013235 77 0 0.0 0.0 0.00 0.00 0.00 96 1007.4
20260506012235 77 0 0.0 0.0 0.00 0.00 0.00 96 1007.2
20260506011235 78 0 0.0 0.0 0.00 0.00 0.00 96 1007.2
20260506010235 78 0 0.0 0.0 0.00 0.00 0.00 96 1007.1
20260506005237 78 0 0.0 0.0 0.00 0.00 0.00 96 1006.8
20260506004446 78 0 0.0 0.0 0.00 0.00 0.00 95 1006.9
20260506003235 78 0 0.0 0.0 0.00 0.00 0.00 95 1006.9
20260506002235 78 0 0.0 0.0 0.00 0.00 0.00 95 1006.9
20260506001236 78 0 0.0 0.0 0.00 0.00 0.00 95 1006.8
20260505235236 78 0 0.0 0.0 0.00 0.00 0.00 95 1006.9
20260505234236 78 0 0.0 0.0 0.00 0.00 0.00 95 1006.8
20260505233236 78 0 0.0 0.0 0.00 0.00 0.00 94 1006.7
20260505232235 78 0 0.0 0.0 0.00 0.00 0.00 93 1006.6
20260505231236 78 0 0.0 0.0 0.00 0.00 0.00 92 1006.6
20260505230236 79 0 0.0 0.0 0.00 0.00 0.00 92 1006.6
20260505225236 79 0 0.0 0.0 0.00 0.00 0.00 92 1006.6
20260505224235 79 0 0.0 0.0 0.00 0.00 0.00 92 1006.7
20260505223236 79 0 0.0 0.0 0.00 0.00 0.00 92 1006.8
20260505222236 79 0 0.0 0.0 0.00 0.00 0.00 92 1006.8
20260505221236 79 0 0.0 0.0 0.00 0.00 0.00 91 1006.9